COSMOS 2151 (21422 NORAD) Tracking and Keplerian Element Data

This shows tracking and keplerian element data for the satellite.

Feedback or suggestion? Click here.




ElementValue
Catalog21422
NameCOSMOS 2151
Epoch Orbit74541
Epoch Day12.79254926
Epoch Year2024
RAAN119.6586
Inclination82.5007
Eccentricity0.0013638
Argument of Perigee185.6832
Mean Anonmoly174.4236
Mean Motion14.94913501
Decay Rate3.17E-05
L11 21422U 91042A 24012.79254926 .00003170 00000+0 28788-3 0 9996
L22 21422 82.5007 119.6586 0013638 185.6832 174.4236 14.94913501745410



Live tracking and technical data element details for COSMOS 2151 (NORAD 21422). COSMOS 2151 can be tracked NOW for your location showing map with azimuth and elevation plus other details from your city location.







IsCatalogInMostPopularTable: catalog: 21422, numindb: 438
Update: records affected: 1



GetName: 21422 COSMOS 2151

Hit Count: updated at: Sun, 14 Apr 2024 23:50:42 GMT